Location: Harwich
(41.7160°N, 69.9939°W)
Time: 15:05:30
(UTC+01:00)

A-11 Canister half - Pass Details

Date: 30 November 2023
Orbit: 1526 x 1682 km, 47.3° (Epoch: 01 March)

Event Time Altitude Azimuth Distance (km) Brightness Sun altitude
Rises 05:15:06 0° 279° (W) 4,921 - -69.7°
Reaches altitude 10° 05:18:21 10° 282° (WNW) 3,922 - -69.8°
Maximum altitude 05:28:20 64° 4° (N) 1,781 - -69.9°
Drops below altitude 10° 05:38:00 10° 85° (E) 3,806 - -69.8°
Sets 05:41:07 0° 89° (E) 4,770 - -69.7°
